Flag for Norway Weather past 2 weeks in Ålesund, Norway

Now
50 °F

Light rain. Partly sunny.


Feels Like: 45 °F
Forecast: 51 / 55 °F
Wind: 15 mph from Northeast

Location: Alesund / Vigra

Current Time: Jul 30, 2015 at 9:17:12 AM

Latest Report: Jul 30, 2015 at 8:50 AM


Visibility: N/A

Pressure: 29.68 "Hg

Humidity: 94%

Dew point: 48 °F

Location of ÅlesundLocation

Historic Weather in Ålesund — Graph

°F

Ålesund temperature yesterday

Maximum temperature yesterday: 55 °F (at 4:20 AM)
Minimum temperature yesterday: 52 °F (at 10:20 PM)
Average temperature yesterday: 54 °F

Past Weeks' High & Low Weather Summary

 TemperatureHumidityPressure
High61 °F (Jul 23, 2:20 PM)100% (Jul 15, 9:20 AM)30.15 "Hg (Jul 15, 9:20 AM)
Low41 °F (Jul 17, 2:50 AM)59% (Jul 17, 12:20 PM)29.42 "Hg (Jul 18, 7:50 PM)
Average54 °F84%29.71 "Hg
* Reported Jul 15 7:20 AM — Jul 30 7:50 AM, Ålesund, Weather by CustomWeather, © 2015

Note: Actual official high and low records may vary slightly from our data, if they occured in-between our weather recording intervals... More about our weather records

Advertising

Ålesund weather history for previous 24 hours

 ConditionsComfort  
Time TempWeatherWind HumidityBarometerVisibility
7:50 AM
Thu, Jul 30
50 °FDrizzle. Partly sunny.16 mph88%29.68 "HgN/A
7:20 AM50 °FDrizzle. Partly sunny.16 mph88%29.68 "HgN/A
6:50 AM50 °FDrizzle. Partly sunny.16 mph88%29.68 "HgN/A
6:20 AM50 °FLight rain. Partly sunny.18 mph94%29.68 "HgN/A
5:50 AM50 °FLight rain. Partly sunny.16 mph94%29.68 "HgN/A
5:20 AM50 °FLight rain. Mostly cloudy.17 mph94%29.68 "HgN/A
4:50 AM52 °FLight rain. Low clouds.17 mph88%29.68 "HgN/A
4:20 AM50 °FLight rain. Mostly cloudy.15 mph94%29.68 "HgN/A
3:50 AM50 °FLight rain. Partly cloudy.13 mph94%29.68 "HgN/A
3:20 AM50 °FLight rain. Mostly cloudy.16 mph94%29.68 "HgN/A
2:50 AM50 °FRain. Mostly cloudy.17 mph94%29.68 "HgN/A
2:20 AM52 °FLight rain. Mostly cloudy.17 mph88%29.68 "HgN/A
1:50 AM52 °FLight rain. Overcast.17 mph88%29.68 "HgN/A
1:20 AM52 °FLight rain. Mostly cloudy.17 mph88%29.68 "HgN/A
12:50 AM52 °FRain. Mostly cloudy.17 mph94%29.65 "Hg4 mi
12:20 AM52 °FLight rain. Mostly cloudy.17 mph94%29.65 "Hg6 mi
11:50 PM
Wed, Jul 29
52 °FLight rain. Passing clouds.16 mph94%29.65 "Hg4 mi
10:50 PM52 °FRain. Partly sunny.16 mph94%29.65 "Hg6 mi
10:20 PM52 °FLight rain. Broken clouds.17 mph94%29.65 "HgN/A
9:50 PM54 °FLight rain. Broken clouds.17 mph88%29.65 "HgN/A
9:20 PM54 °FDrizzle. Broken clouds.16 mph88%29.65 "HgN/A
8:50 PM54 °FLight rain. Partly sunny.17 mph88%29.65 "HgN/A
8:20 PM54 °FDrizzle. Partly sunny.18 mph88%29.65 "HgN/A
7:50 PM54 °FLight rain. Partly sunny.18 mph88%29.62 "HgN/A
7:20 PM54 °FLight rain. Partly sunny.18 mph88%29.62 "HgN/A
6:50 PM54 °FDrizzle. Broken clouds.17 mph88%29.62 "HgN/A
6:20 PM54 °FLight rain. Broken clouds.20 mph88%29.62 "HgN/A
5:50 PM54 °FLight rain. Partly sunny.22 mph88%29.62 "HgN/A
5:20 PM55 °FDrizzle. Partly sunny.18 mph82%29.62 "HgN/A
4:50 PM55 °FPartly sunny.21 mph82%29.62 "HgN/A
4:20 PM55 °FPartly sunny.22 mph82%29.62 "HgN/A
3:50 PM55 °FPartly sunny.22 mph82%29.62 "HgN/A
3:20 PM55 °FPartly sunny.18 mph82%29.62 "HgN/A
2:50 PM55 °FPartly sunny.21 mph82%29.62 "HgN/A
2:20 PM55 °FPartly sunny.22 mph82%29.59 "HgN/A
1:50 PM55 °FBroken clouds.20 mph82%29.59 "HgN/A
1:20 PM55 °FBroken clouds.17 mph82%29.59 "HgN/A
12:50 PM55 °FBroken clouds.16 mph82%29.59 "HgN/A
12:20 PM55 °FBroken clouds.16 mph82%29.59 "HgN/A
11:20 AM55 °FBroken clouds.16 mph82%29.59 "HgN/A
10:50 AM55 °FBroken clouds.15 mph82%29.59 "HgN/A
10:20 AM55 °FBroken clouds.17 mph82%29.59 "HgN/A
9:50 AM55 °FBroken clouds.18 mph82%29.59 "HgN/A
9:20 AM55 °FBroken clouds.20 mph82%29.59 "HgN/A
Weather by CustomWeather, © 2015

See weather overviewHow to use our weather pages